Weather Service Report


245 
ASUS41 KRLX 271610
RWRRLX
West Virginia Regional Weather Roundup
National Weather Service Charleston WV
1100 AM EST FRI FEB 27 2015

Note: "fair" indicates few or no clouds below 12,000 feet with no
significant weather and/or obstructions to visibility.

WVZ003-271700-
Northern Panhandle of West Virginia
  
CITY           SKY/WX    TMP DP  RH WIND       PRES   REMARKS
WHEELING       SUNNY     10  -1  61 NW8       30.48R WCI  -2          
$$

WVZ009-271700-
Northwest West Virginia
  
CITY           SKY/WX    TMP DP  RH WIND       PRES   REMARKS
PARKERSBURG    PTSUNNY   15   0  51 N6        30.57R WCI   6          
$$

WVZ006-271700-
Western West Virginia
  
CITY           SKY/WX    TMP DP  RH WIND       PRES   REMARKS
HUNTINGTON     FLURRIES  18   6  59 NW6       30.55R WCI  10          
$$

WVZ015-271700-
West Central West Virginia
  
CITY           SKY/WX    TMP DP  RH WIND       PRES   REMARKS
CHARLESTON     PTSUNNY   19   6  57 W3        30.52R                  
$$

WVZ022-031-271700-
North Central West Virginia
  
CITY           SKY/WX    TMP DP  RH WIND       PRES   REMARKS
CLARKSBURG     MIX PCPN  15   2  56 CALM      30.47R                  
MORGANTOWN     CLOUDY   N/A N/A N/A VRB3      30.48R                  
$$

WVZ025-035-042-045-271700-
Southern West Virginia
  
CITY           SKY/WX    TMP DP  RH WIND       PRES   REMARKS
BECKLEY        CLOUDY    16   7  67 NW6       30.34R WCI   7          
LOGAN          LGT SNOW  16   9  73 NW5       30.42R WCI   9          
BLUEFIELD      LGT SNOW  20  10  65 NW9       30.31R WCI   9          
LEWISBURG      SUNNY     24   9  51 W8        30.33R                  
$$

WVZ047-271700-
Northern Mountains of West Virginia
  
CITY           SKY/WX    TMP DP  RH WIND       PRES   REMARKS
ELKINS         LGT SNOW N/A N/A N/A NW7       30.38R                  
$$

WVZ052-271700-
Eastern Panhandle of West Virginia
  
CITY           SKY/WX    TMP DP  RH WIND       PRES   REMARKS
MARTINSBURG    SUNNY     25   7  46 NW10      30.44R                  
PETERSBURG     SUNNY     26   6  41 W9        30.42R                  
$$

Return to Home page


Western Regional Climate Center, wrcc@dri.edu